| time (UTC) | temp C | wind direction | speed KPH | gust KPH | rain 1hr cm | rain 24hr cm | rain mn cm | humidity % | barometer mb |
| 20260509201558 | 20 | 76 | 0.0 | 0.0 | 0.00 | 0.00 | 0.00 | 51 | 1009.4 |
| 20260509201057 | 20 | 97 | 0.0 | 0.0 | 0.00 | 0.00 | 0.00 | 49 | 1009.4 |
| 20260509200556 | 20 | 98 | 0.0 | 0.0 | 0.00 | 0.00 | 0.00 | 49 | 1009.5 |
| 20260509200053 | 20 | 176 | 0.0 | 0.0 | 0.00 | 0.00 | 0.00 | 51 | 1009.3 |
| 20260509195548 | 20 | 160 | 0.0 | 0.0 | 0.00 | 0.00 | 0.00 | 53 | 1009.4 |
| 20260509195043 | 20 | 153 | 0.0 | 1.6 | 0.00 | 0.00 | 0.00 | 51 | 1009.4 |
| 20260509194538 | 20 | 212 | 3.2 | 6.4 | 0.00 | 0.00 | 0.00 | 51 | 1009.3 |
| 20260509194036 | 20 | 63 | 1.6 | 1.6 | 0.00 | 0.00 | 0.00 | 50 | 1009.5 |
| 20260509193536 | 20 | 169 | 1.6 | 3.2 | 0.00 | 0.00 | 0.00 | 49 | 1009.6 |
| 20260509193033 | 20 | 193 | 1.6 | 4.8 | 0.00 | 0.00 | 0.00 | 50 | 1009.6 |
| 20260509192530 | 21 | 162 | 1.6 | 6.4 | 0.00 | 0.00 | 0.00 | 52 | 1009.6 |
| 20260509192025 | 21 | 181 | 4.8 | 6.4 | 0.00 | 0.00 | 0.00 | 49 | 1009.7 |
| 20260509191519 | 22 | 96 | 3.2 | 4.8 | 0.00 | 0.00 | 0.00 | 47 | 1009.5 |
| 20260509191015 | 21 | 70 | 4.8 | 9.7 | 0.00 | 0.00 | 0.00 | 47 | 1009.9 |
| 20260509190512 | 21 | 155 | 3.2 | 6.4 | 0.00 | 0.00 | 0.00 | 48 | 1009.7 |
| 20260509190010 | 21 | 136 | 1.6 | 3.2 | 0.00 | 0.00 | 0.00 | 48 | 1009.9 |
| 20260509185507 | 21 | 98 | 0.0 | 6.4 | 0.00 | 0.00 | 0.00 | 48 | 1009.9 |
| 20260509185004 | 22 | 154 | 1.6 | 3.2 | 0.00 | 0.00 | 0.00 | 47 | 1009.9 |
| 20260509184503 | 22 | 94 | 6.4 | 6.4 | 0.00 | 0.00 | 0.00 | 45 | 1009.6 |
| 20260509183959 | 21 | 100 | 3.2 | 4.8 | 0.00 | 0.00 | 0.00 | 46 | 1010.0 |
| 20260509183458 | 22 | 170 | 4.8 | 9.7 | 0.00 | 0.00 | 0.00 | 48 | 1010.2 |
| 20260509182955 | 21 | 120 | 0.0 | 3.2 | 0.00 | 0.00 | 0.00 | 51 | 1010.1 |
| 20260509182451 | 21 | 6 | 0.0 | 3.2 | 0.00 | 0.00 | 0.00 | 46 | 1010.1 |
| 20260509181949 | 21 | 74 | 4.8 | 6.4 | 0.00 | 0.00 | 0.00 | 47 | 1010.1 |
| 20260509181447 | 21 | 45 | 3.2 | 3.2 | 0.00 | 0.00 | 0.00 | 53 | 1010.3 |
| 20260509180944 | 21 | 34 | 1.6 | 3.2 | 0.00 | 0.00 | 0.00 | 53 | 1010.6 |
| 20260509180439 | 20 | 161 | 0.0 | 1.6 | 0.00 | 0.00 | 0.00 | 55 | 1010.5 |
| 20260509175936 | 20 | 59 | 3.2 | 4.8 | 0.00 | 0.00 | 0.00 | 55 | 1010.7 |
| 20260509175433 | 20 | 86 | 4.8 | 6.4 | 0.00 | 0.00 | 0.00 | 55 | 1010.6 |
| 20260509174929 | 20 | 64 | 4.8 | 4.8 | 0.00 | 0.00 | 0.00 | 54 | 1010.7 |
| 20260509174425 | 19 | 177 | 1.6 | 4.8 | 0.00 | 0.00 | 0.00 | 57 | 1011.0 |
| 20260509173921 | 18 | 48 | 1.6 | 4.8 | 0.00 | 0.00 | 0.00 | 57 | 1010.9 |
| 20260509173421 | 18 | 17 | 3.2 | 11.3 | 0.00 | 0.00 | 0.00 | 59 | 1010.8 |
| 20260509172917 | 18 | 53 | 3.2 | 6.4 | 0.00 | 0.00 | 0.00 | 59 | 1011.1 |
| 20260509172414 | 18 | 70 | 8.0 | 11.3 | 0.00 | 0.00 | 0.00 | 61 | 1011.1 |
| 20260509171910 | 18 | 354 | 4.8 | 12.9 | 0.00 | 0.00 | 0.00 | 58 | 1011.3 |
| 20260509171407 | 18 | 109 | 9.7 | 11.3 | 0.00 | 0.00 | 0.00 | 64 | 1011.5 |
| 20260509170903 | 18 | 17 | 8.0 | 11.3 | 0.00 | 0.00 | 0.00 | 59 | 1011.4 |
| 20260509170358 | 17 | 114 | 6.4 | 12.9 | 0.00 | 0.00 | 0.00 | 61 | 1011.3 |
| 20260509165854 | 17 | 64 | 8.0 | 9.7 | 0.00 | 0.00 | 0.00 | 63 | 1011.4 |
| 20260509165348 | 17 | 58 | 6.4 | 11.3 | 0.00 | 0.00 | 0.00 | 63 | 1011.8 |
| 20260509164839 | 17 | 86 | 6.4 | 9.7 | 0.00 | 0.00 | 0.00 | 63 | 1011.6 |
| 20260509164335 | 17 | 98 | 6.4 | 9.7 | 0.00 | 0.00 | 0.00 | 63 | 1011.7 |
| 20260509163832 | 17 | 65 | 3.2 | 11.3 | 0.00 | 0.00 | 0.00 | 64 | 1011.9 |
| 20260509163328 | 17 | 81 | 9.7 | 11.3 | 0.00 | 0.00 | 0.00 | 64 | 1011.5 |
| 20260509162827 | 17 | 60 | 12.9 | 12.9 | 0.00 | 0.00 | 0.00 | 62 | 1011.8 |
| 20260509162320 | 17 | 76 | 6.4 | 9.7 | 0.00 | 0.00 | 0.00 | 58 | 1011.8 |
| 20260509161817 | 17 | 67 | 4.8 | 9.7 | 0.00 | 0.00 | 0.00 | 57 | 1011.8 |
| 20260509161314 | 17 | 83 | 3.2 | 9.7 | 0.00 | 0.00 | 0.00 | 54 | 1011.7 |
| 20260509160809 | 17 | 89 | 3.2 | 6.4 | 0.00 | 0.00 | 0.00 | 54 | 1011.8 |
| 20260509160305 | 17 | 70 | 6.4 | 11.3 | 0.00 | 0.00 | 0.00 | 54 | 1011.5 |
| 20260509155801 | 17 | 63 | 4.8 | 11.3 | 0.00 | 0.00 | 0.00 | 54 | 1011.6 |
| 20260509155257 | 17 | 85 | 6.4 | 9.7 | 0.00 | 0.00 | 0.00 | 56 | 1011.6 |
| 20260509154753 | 18 | 14 | 6.4 | 9.7 | 0.00 | 0.00 | 0.00 | 53 | 1011.4 |
| 20260509154250 | 18 | 45 | 4.8 | 9.7 | 0.00 | 0.00 | 0.00 | 52 | 1011.4 |
| 20260509153747 | 18 | 16 | 4.8 | 11.3 | 0.00 | 0.00 | 0.00 | 51 | 1011.5 |
| 20260509153243 | 17 | 29 | 4.8 | 11.3 | 0.00 | 0.00 | 0.00 | 52 | 1011.5 |
| 20260509152740 | 17 | 68 | 3.2 | 6.4 | 0.00 | 0.00 | 0.00 | 52 | 1011.7 |
| 20260509152237 | 17 | 98 | 3.2 | 6.4 | 0.00 | 0.00 | 0.00 | 53 | 1011.8 |
| 20260509151734 | 17 | 80 | 3.2 | 6.4 | 0.00 | 0.00 | 0.00 | 54 | 1011.6 |
| 20260509151230 | 17 | 91 | 6.4 | 6.4 | 0.00 | 0.00 | 0.00 | 54 | 1011.6 |
| 20260509150728 | 17 | 56 | 3.2 | 11.3 | 0.00 | 0.00 | 0.00 | 54 | 1011.9 |
| 20260509150226 | 17 | 51 | 6.4 | 9.7 | 0.00 | 0.00 | 0.00 | 56 | 1012.0 |
| 20260509145723 | 17 | 120 | 8.0 | 9.7 | 0.00 | 0.00 | 0.00 | 58 | 1011.8 |
| 20260509145222 | 17 | 75 | 3.2 | 4.8 | 0.00 | 0.00 | 0.00 | 59 | 1011.8 |
| 20260509144719 | 16 | 59 | 4.8 | 9.7 | 0.00 | 0.00 | 0.00 | 56 | 1011.7 |
| 20260509144216 | 16 | 56 | 3.2 | 4.8 | 0.00 | 0.00 | 0.00 | 58 | 1012.0 |
| 20260509143714 | 16 | 64 | 6.4 | 9.7 | 0.00 | 0.00 | 0.00 | 60 | 1011.5 |
| 20260509143211 | 16 | 52 | 4.8 | 9.7 | 0.00 | 0.00 | 0.00 | 58 | 1011.9 |
| 20260509142706 | 16 | 101 | 6.4 | 6.4 | 0.00 | 0.00 | 0.00 | 62 | 1011.7 |
| 20260509142203 | 16 | 51 | 3.2 | 4.8 | 0.00 | 0.00 | 0.00 | 59 | 1011.8 |
| 20260509141658 | 16 | 77 | 6.4 | 9.7 | 0.00 | 0.00 | 0.00 | 59 | 1012.2 |
| 20260509141155 | 16 | 74 | 4.8 | 9.7 | 0.00 | 0.00 | 0.00 | 60 | 1012.1 |
| 20260509140652 | 16 | 65 | 6.4 | 11.3 | 0.00 | 0.00 | 0.00 | 62 | 1012.2 |
| 20260509140150 | 15 | 58 | 3.2 | 9.7 | 0.00 | 0.00 | 0.00 | 62 | 1012.5 |
| 20260509135647 | 15 | 58 | 3.2 | 6.4 | 0.00 | 0.00 | 0.00 | 64 | 1012.4 |
| 20260509135145 | 15 | 47 | 6.4 | 6.4 | 0.00 | 0.00 | 0.00 | 64 | 1012.3 |
| 20260509134641 | 14 | 54 | 3.2 | 4.8 | 0.00 | 0.00 | 0.00 | 66 | 1012.3 |
| 20260509134139 | 13 | 45 | 0.0 | 3.2 | 0.00 | 0.00 | 0.00 | 69 | 1012.5 |
| 20260509133636 | 13 | 43 | 1.6 | 1.6 | 0.00 | 0.00 | 0.00 | 71 | 1012.4 |
| 20260509133133 | 13 | 60 | 4.8 | 4.8 | 0.00 | 0.00 | 0.00 | 72 | 1012.3 |
| 20260509132631 | 13 | 59 | 0.0 | 1.6 | 0.00 | 0.00 | 0.00 | 74 | 1012.3 |
| 20260509132130 | 13 | 163 | 0.0 | 0.0 | 0.00 | 0.00 | 0.00 | 73 | 1012.3 |
| 20260509131625 | 13 | 190 | 0.0 | 0.0 | 0.00 | 0.00 | 0.00 | 75 | 1012.3 |
| 20260509131123 | 12 | 214 | 0.0 | 0.0 | 0.00 | 0.00 | 0.00 | 78 | 1012.2 |
| 20260509130618 | 12 | 254 | 0.0 | 0.0 | 0.00 | 0.00 | 0.00 | 78 | 1012.2 |
| 20260509130115 | 12 | 173 | 0.0 | 1.6 | 0.00 | 0.00 | 0.00 | 80 | 1012.1 |
| 20260509125611 | 12 | 162 | 0.0 | 0.0 | 0.00 | 0.00 | 0.00 | 83 | 1012.2 |
| 20260509125108 | 11 | 196 | 1.6 | 3.2 | 0.00 | 0.00 | 0.00 | 82 | 1012.1 |
| 20260509124604 | 11 | 345 | 0.0 | 0.0 | 0.00 | 0.00 | 0.00 | 81 | 1012.2 |
| 20260509124102 | 11 | 278 | 0.0 | 0.0 | 0.00 | 0.00 | 0.00 | 81 | 1012.2 |
| 20260509123600 | 11 | 252 | 0.0 | 1.6 | 0.00 | 0.00 | 0.00 | 83 | 1012.4 |
| 20260509123056 | 11 | 234 | 0.0 | 0.0 | 0.00 | 0.00 | 0.00 | 85 | 1012.2 |
| 20260509122552 | 11 | 246 | 0.0 | 1.6 | 0.00 | 0.00 | 0.00 | 86 | 1012.4 |
| 20260509122050 | 11 | 273 | 1.6 | 1.6 | 0.00 | 0.00 | 0.00 | 87 | 1012.3 |
| 20260509121546 | 10 | 254 | 0.0 | 1.6 | 0.00 | 0.00 | 0.00 | 86 | 1012.5 |
| 20260509121048 | 10 | 275 | 1.6 | 1.6 | 0.00 | 0.00 | 0.00 | 87 | 1012.2 |
| 20260509120542 | 10 | 269 | 0.0 | 1.6 | 0.00 | 0.00 | 0.00 | 87 | 1012.3 |
| 20260509120040 | 10 | 142 | 0.0 | 0.0 | 0.00 | 0.00 | 0.00 | 87 | 1012.2 |
| 20260509115536 | 10 | 151 | 0.0 | 1.6 | 0.00 | 0.00 | 0.00 | 86 | 1012.3 |
| 20260509115034 | 10 | 193 | 0.0 | 0.0 | 0.00 | 0.00 | 0.00 | 87 | 1012.3 |
| 20260509114532 | 10 | 199 | 0.0 | 0.0 | 0.00 | 0.00 | 0.00 | 87 | 1012.3 |
| 20260509114031 | 10 | 277 | 0.0 | 0.0 | 0.00 | 0.00 | 0.00 | 87 | 1012.3 |
| 20260509113529 | 10 | 317 | 0.0 | 1.6 | 0.00 | 0.00 | 0.00 | 86 | 1012.3 |
| 20260509113026 | 10 | 93 | 0.0 | 0.0 | 0.00 | 0.00 | 0.00 | 87 | 1012.2 |
| 20260509112522 | 10 | 87 | 0.0 | 1.6 | 0.00 | 0.00 | 0.00 | 87 | 1012.1 |
| 20260509112019 | 10 | 78 | 0.0 | 1.6 | 0.00 | 0.00 | 0.00 | 87 | 1012.0 |
| 20260509111517 | 10 | 84 | 0.0 | 0.0 | 0.00 | 0.00 | 0.00 | 89 | 1011.8 |
| 20260509111014 | 10 | 61 | 1.6 | 1.6 | 0.00 | 0.00 | 0.00 | 89 | 1012.1 |
| 20260509110510 | 10 | 89 | 3.2 | 3.2 | 0.00 | 0.00 | 0.00 | 89 | 1011.9 |
| 20260509110007 | 9 | 13 | 0.0 | 1.6 | 0.00 | 0.00 | 0.00 | 89 | 1011.9 |
| 20260509105506 | 9 | 358 | 0.0 | 1.6 | 0.00 | 0.00 | 0.00 | 90 | 1011.7 |
| 20260509105003 | 9 | 280 | 0.0 | 0.0 | 0.00 | 0.00 | 0.00 | 92 | 1011.9 |
| 20260509104459 | 9 | 272 | 0.0 | 0.0 | 0.00 | 0.00 | 0.00 | 92 | 1011.8 |
| 20260509103957 | 9 | 266 | 0.0 | 1.6 | 0.00 | 0.00 | 0.00 | 92 | 1011.7 |
| 20260509103454 | 9 | 261 | 0.0 | 1.6 | 0.00 | 0.00 | 0.00 | 91 | 1011.8 |
| 20260509102952 | 9 | 99 | 0.0 | 0.0 | 0.00 | 0.00 | 0.00 | 90 | 1011.4 |
| 20260509102449 | 9 | 110 | 0.0 | 0.0 | 0.00 | 0.00 | 0.00 | 91 | 1011.7 |
| 20260509101945 | 9 | 94 | 0.0 | 0.0 | 0.00 | 0.00 | 0.00 | 91 | 1011.5 |
| 20260509101442 | 9 | 74 | 0.0 | 1.6 | 0.00 | 0.00 | 0.00 | 90 | 1011.5 |
| 20260509100939 | 9 | 76 | 1.6 | 1.6 | 0.00 | 0.00 | 0.00 | 91 | 1011.5 |
| 20260509100437 | 9 | 92 | 1.6 | 1.6 | 0.00 | 0.00 | 0.00 | 91 | 1011.4 |
| 20260509095933 | 9 | 94 | 1.6 | 1.6 | 0.00 | 0.00 | 0.00 | 91 | 1011.6 |
| 20260509095430 | 9 | 134 | 0.0 | 0.0 | 0.00 | 0.00 | 0.00 | 90 | 1011.5 |
| 20260509094927 | 9 | 152 | 0.0 | 0.0 | 0.00 | 0.00 | 0.00 | 92 | 1011.4 |
| 20260509094423 | 9 | 161 | 0.0 | 0.0 | 0.00 | 0.00 | 0.00 | 91 | 1011.4 |
| 20260509093922 | 9 | 189 | 0.0 | 0.0 | 0.00 | 0.00 | 0.00 | 90 | 1011.6 |
| 20260509093418 | 9 | 189 | 0.0 | 0.0 | 0.00 | 0.00 | 0.00 | 88 | 1011.7 |
| 20260509092917 | 9 | 218 | 0.0 | 0.0 | 0.00 | 0.00 | 0.00 | 90 | 1011.8 |
| 20260509092414 | 8 | 218 | 0.0 | 0.0 | 0.00 | 0.00 | 0.00 | 89 | 1011.7 |
| 20260509091913 | 8 | 216 | 0.0 | 0.0 | 0.00 | 0.00 | 0.00 | 90 | 1011.6 |
| 20260509091409 | 8 | 212 | 0.0 | 0.0 | 0.00 | 0.00 | 0.00 | 91 | 1011.4 |
| 20260509090906 | 8 | 212 | 0.0 | 0.0 | 0.00 | 0.00 | 0.00 | 92 | 1011.6 |
| 20260509090403 | 8 | 220 | 0.0 | 0.0 | 0.00 | 0.00 | 0.00 | 92 | 1011.6 |
| 20260509085901 | 8 | 187 | 0.0 | 0.0 | 0.00 | 0.00 | 0.00 | 92 | 1011.6 |
| 20260509085358 | 8 | 188 | 0.0 | 0.0 | 0.00 | 0.00 | 0.00 | 91 | 1011.6 |
| 20260509084854 | 8 | 244 | 0.0 | 0.0 | 0.00 | 0.00 | 0.00 | 91 | 1011.9 |
| 20260509084351 | 8 | 244 | 0.0 | 0.0 | 0.00 | 0.00 | 0.00 | 91 | 1011.7 |
| 20260509083849 | 9 | 224 | 0.0 | 0.0 | 0.00 | 0.00 | 0.00 | 91 | 1011.8 |
| 20260509083345 | 9 | 145 | 0.0 | 0.0 | 0.00 | 0.00 | 0.00 | 90 | 1011.6 |
| 20260509082842 | 9 | 145 | 0.0 | 0.0 | 0.00 | 0.00 | 0.00 | 89 | 1011.7 |
| 20260509082339 | 9 | 145 | 0.0 | 0.0 | 0.00 | 0.00 | 0.00 | 89 | 1011.7 |
| 20260509081836 | 9 | 146 | 0.0 | 0.0 | 0.00 | 0.00 | 0.00 | 89 | 1011.8 |
| 20260509081333 | 9 | 146 | 0.0 | 0.0 | 0.00 | 0.00 | 0.00 | 90 | 1012.1 |
| 20260509080831 | 9 | 161 | 0.0 | 0.0 | 0.00 | 0.00 | 0.00 | 90 | 1011.9 |
| 20260509080329 | 8 | 163 | 0.0 | 0.0 | 0.00 | 0.00 | 0.00 | 90 | 1011.9 |
| 20260509075827 | 8 | 188 | 0.0 | 0.0 | 0.00 | 0.00 | 0.00 | 90 | 1012.0 |
| 20260509075324 | 8 | 189 | 0.0 | 0.0 | 0.00 | 0.00 | 0.00 | 90 | 1012.0 |
| 20260509074821 | 8 | 189 | 0.0 | 0.0 | 0.00 | 0.00 | 0.00 | 90 | 1012.0 |
| 20260509074319 | 8 | 189 | 0.0 | 0.0 | 0.00 | 0.00 | 0.00 | 90 | 1011.8 |
| 20260509073814 | 8 | 189 | 0.0 | 0.0 | 0.00 | 0.00 | 0.00 | 91 | 1012.1 |
| 20260509073311 | 8 | 189 | 0.0 | 0.0 | 0.00 | 0.00 | 0.00 | 91 | 1012.0 |
| 20260509072808 | 8 | 191 | 0.0 | 0.0 | 0.00 | 0.00 | 0.00 | 89 | 1012.1 |
| 20260509072306 | 8 | 193 | 0.0 | 0.0 | 0.00 | 0.00 | 0.00 | 89 | 1012.0 |
| 20260509071801 | 8 | 248 | 0.0 | 0.0 | 0.00 | 0.00 | 0.00 | 89 | 1012.2 |
| 20260509071258 | 8 | 252 | 0.0 | 0.0 | 0.00 | 0.00 | 0.00 | 89 | 1012.1 |
| 20260509070755 | 8 | 252 | 0.0 | 0.0 | 0.00 | 0.00 | 0.00 | 89 | 1012.2 |
| 20260509070251 | 8 | 208 | 0.0 | 0.0 | 0.00 | 0.00 | 0.00 | 89 | 1012.3 |
| 20260509065748 | 8 | 240 | 0.0 | 0.0 | 0.00 | 0.00 | 0.00 | 88 | 1012.2 |
| 20260509065244 | 8 | 220 | 0.0 | 0.0 | 0.00 | 0.00 | 0.00 | 88 | 1012.3 |
| 20260509064741 | 8 | 254 | 0.0 | 0.0 | 0.00 | 0.00 | 0.00 | 87 | 1012.4 |
| 20260509064238 | 8 | 254 | 0.0 | 0.0 | 0.00 | 0.00 | 0.00 | 87 | 1012.3 |
| 20260509063736 | 8 | 248 | 0.0 | 0.0 | 0.00 | 0.00 | 0.00 | 87 | 1012.5 |
| 20260509063232 | 8 | 250 | 0.0 | 0.0 | 0.00 | 0.00 | 0.00 | 87 | 1012.6 |
| 20260509062729 | 8 | 131 | 0.0 | 0.0 | 0.00 | 0.00 | 0.00 | 87 | 1012.6 |
| 20260509062226 | 8 | 119 | 0.0 | 0.0 | 0.00 | 0.00 | 0.00 | 85 | 1012.7 |
| 20260509061723 | 8 | 133 | 0.0 | 0.0 | 0.00 | 0.00 | 0.00 | 86 | 1012.6 |
| 20260509061221 | 8 | 169 | 0.0 | 0.0 | 0.00 | 0.00 | 0.00 | 84 | 1012.7 |
| 20260509060718 | 9 | 339 | 0.0 | 0.0 | 0.00 | 0.00 | 0.00 | 83 | 1012.7 |
| 20260509060214 | 9 | 82 | 0.0 | 0.0 | 0.00 | 0.00 | 0.00 | 84 | 1012.6 |
| 20260509055710 | 9 | 94 | 0.0 | 0.0 | 0.00 | 0.00 | 0.00 | 84 | 1012.7 |
| 20260509055206 | 8 | 94 | 0.0 | 0.0 | 0.00 | 0.00 | 0.00 | 85 | 1012.7 |
| 20260509054703 | 9 | 83 | 0.0 | 1.6 | 0.00 | 0.00 | 0.00 | 84 | 1012.9 |
| 20260509054200 | 9 | 72 | 1.6 | 1.6 | 0.00 | 0.00 | 0.00 | 84 | 1012.7 |
| 20260509053659 | 9 | 275 | 0.0 | 0.0 | 0.00 | 0.00 | 0.00 | 82 | 1012.7 |
| 20260509053155 | 9 | 274 | 0.0 | 0.0 | 0.00 | 0.00 | 0.00 | 83 | 1012.8 |
| 20260509052653 | 9 | 274 | 0.0 | 0.0 | 0.00 | 0.00 | 0.00 | 83 | 1012.7 |
| 20260509052150 | 9 | 278 | 0.0 | 0.0 | 0.00 | 0.00 | 0.00 | 84 | 1012.7 |
| 20260509051648 | 8 | 255 | 0.0 | 0.0 | 0.00 | 0.00 | 0.00 | 86 | 1012.8 |
| 20260509051145 | 9 | 244 | 0.0 | 0.0 | 0.00 | 0.00 | 0.00 | 87 | 1012.8 |
| 20260509050642 | 9 | 229 | 0.0 | 0.0 | 0.00 | 0.00 | 0.00 | 86 | 1012.9 |
| 20260509050138 | 9 | 193 | 0.0 | 0.0 | 0.00 | 0.00 | 0.00 | 84 | 1012.9 |
| 20260509045636 | 10 | 194 | 0.0 | 0.0 | 0.00 | 0.00 | 0.00 | 82 | 1012.5 |
| 20260509045133 | 10 | 222 | 0.0 | 0.0 | 0.00 | 0.00 | 0.00 | 78 | 1012.7 |
| 20260509044630 | 10 | 292 | 0.0 | 0.0 | 0.00 | 0.00 | 0.00 | 78 | 1012.6 |
| 20260509044127 | 9 | 287 | 0.0 | 0.0 | 0.00 | 0.00 | 0.00 | 84 | 1012.7 |
| 20260509043623 | 9 | 247 | 0.0 | 0.0 | 0.00 | 0.00 | 0.00 | 84 | 1012.7 |
| 20260509043119 | 9 | 247 | 0.0 | 0.0 | 0.00 | 0.00 | 0.00 | 84 | 1012.6 |
| 20260509042616 | 9 | 258 | 0.0 | 0.0 | 0.00 | 0.00 | 0.00 | 83 | 1012.5 |
| 20260509042112 | 9 | 269 | 0.0 | 0.0 | 0.00 | 0.00 | 0.00 | 83 | 1012.5 |
| 20260509041609 | 9 | 270 | 0.0 | 0.0 | 0.00 | 0.00 | 0.00 | 81 | 1012.6 |
| 20260509041106 | 10 | 355 | 0.0 | 0.0 | 0.00 | 0.00 | 0.00 | 79 | 1012.7 |
| 20260509040605 | 10 | 355 | 0.0 | 0.0 | 0.00 | 0.00 | 0.00 | 78 | 1012.7 |
| 20260509040101 | 10 | 355 | 0.0 | 0.0 | 0.00 | 0.00 | 0.00 | 80 | 1012.7 |
| 20260509035558 | 10 | 355 | 0.0 | 1.6 | 0.00 | 0.00 | 0.00 | 82 | 1012.7 |
| 20260509035054 | 10 | 293 | 0.0 | 0.0 | 0.00 | 0.00 | 0.00 | 83 | 1012.7 |
| 20260509034553 | 10 | 284 | 1.6 | 3.2 | 0.00 | 0.00 | 0.00 | 83 | 1012.6 |
| 20260509034049 | 10 | 283 | 1.6 | 1.6 | 0.00 | 0.00 | 0.00 | 80 | 1012.6 |
| 20260509033547 | 10 | 122 | 0.0 | 0.0 | 0.00 | 0.00 | 0.00 | 77 | 1012.7 |
| 20260509033043 | 11 | 64 | 0.0 | 0.0 | 0.00 | 0.00 | 0.00 | 75 | 1012.8 |
| 20260509032541 | 11 | 63 | 0.0 | 0.0 | 0.00 | 0.00 | 0.00 | 76 | 1012.7 |
| 20260509032038 | 10 | 180 | 0.0 | 0.0 | 0.00 | 0.00 | 0.00 | 77 | 1012.7 |
| 20260509031535 | 11 | 192 | 0.0 | 0.0 | 0.00 | 0.00 | 0.00 | 76 | 1012.7 |
| 20260509031032 | 11 | 191 | 0.0 | 0.0 | 0.00 | 0.00 | 0.00 | 78 | 1012.7 |
| 20260509030531 | 11 | 254 | 0.0 | 1.6 | 0.00 | 0.00 | 0.00 | 77 | 1012.9 |
| 20260509030027 | 11 | 220 | 0.0 | 0.0 | 0.00 | 0.00 | 0.00 | 75 | 1012.8 |
| 20260509025523 | 11 | 270 | 1.6 | 1.6 | 0.00 | 0.00 | 0.00 | 72 | 1012.7 |
| 20260509025019 | 11 | 292 | 0.0 | 0.0 | 0.00 | 0.00 | 0.00 | 70 | 1012.9 |
| 20260509024515 | 11 | 49 | 0.0 | 0.0 | 0.00 | 0.00 | 0.00 | 73 | 1012.9 |
| 20260509024011 | 11 | 268 | 0.0 | 0.0 | 0.00 | 0.00 | 0.00 | 71 | 1012.8 |
| 20260509023509 | 11 | 266 | 0.0 | 0.0 | 0.00 | 0.00 | 0.00 | 75 | 1012.8 |
| 20260509023006 | 11 | 276 | 0.0 | 0.0 | 0.00 | 0.00 | 0.00 | 76 | 1012.9 |
| 20260509022502 | 11 | 269 | 0.0 | 3.2 | 0.00 | 0.00 | 0.00 | 76 | 1012.8 |
| 20260509022000 | 11 | 151 | 0.0 | 0.0 | 0.00 | 0.00 | 0.00 | 72 | 1012.9 |
| 20260509021457 | 12 | 158 | 0.0 | 1.6 | 0.00 | 0.00 | 0.00 | 69 | 1012.8 |
| 20260509020954 | 12 | 76 | 1.6 | 1.6 | 0.00 | 0.00 | 0.00 | 69 | 1012.8 |
| 20260509020452 | 12 | 123 | 0.0 | 0.0 | 0.00 | 0.00 | 0.00 | 68 | 1012.9 |
| 20260509015949 | 12 | 98 | 0.0 | 0.0 | 0.00 | 0.00 | 0.00 | 65 | 1012.6 |
| 20260509015448 | 12 | 99 | 0.0 | 0.0 | 0.00 | 0.00 | 0.00 | 64 | 1012.8 |
| 20260509014944 | 12 | 308 | 0.0 | 1.6 | 0.00 | 0.00 | 0.00 | 66 | 1012.7 |
| 20260509014441 | 11 | 333 | 0.0 | 1.6 | 0.00 | 0.00 | 0.00 | 70 | 1012.7 |
| 20260509013937 | 11 | 150 | 0.0 | 0.0 | 0.00 | 0.00 | 0.00 | 71 | 1012.7 |
| 20260509013434 | 11 | 208 | 0.0 | 0.0 | 0.00 | 0.00 | 0.00 | 66 | 1012.9 |
| 20260509012930 | 12 | 192 | 0.0 | 0.0 | 0.00 | 0.00 | 0.00 | 61 | 1012.8 |
| 20260509012426 | 12 | 313 | 0.0 | 1.6 | 0.00 | 0.00 | 0.00 | 61 | 1012.7 |
| 20260509011924 | 11 | 282 | 1.6 | 1.6 | 0.00 | 0.00 | 0.00 | 66 | 1012.7 |
| 20260509011421 | 11 | 262 | 0.0 | 0.0 | 0.00 | 0.00 | 0.00 | 63 | 1012.7 |
| 20260509010919 | 13 | 267 | 3.2 | 3.2 | 0.00 | 0.00 | 0.00 | 61 | 1012.6 |
| 20260509010416 | 13 | 0 | 1.6 | 3.2 | 0.00 | 0.00 | 0.00 | 57 | 1012.5 |
| 20260509005913 | 12 | 315 | 0.0 | 0.0 | 0.00 | 0.00 | 0.00 | 61 | 1012.7 |
| 20260509005411 | 13 | 163 | 1.6 | 3.2 | 0.00 | 0.00 | 0.00 | 61 | 1012.7 |
| 20260509004911 | 13 | 84 | 1.6 | 1.6 | 0.00 | 0.00 | 0.00 | 59 | 1012.6 |
| 20260509004407 | 13 | 64 | 1.6 | 1.6 | 0.00 | 0.00 | 0.00 | 57 | 1012.7 |
| 20260509003905 | 14 | 110 | 0.0 | 1.6 | 0.00 | 0.00 | 0.00 | 53 | 1012.5 |
| 20260509003403 | 15 | 197 | 1.6 | 3.2 | 0.00 | 0.00 | 0.00 | 54 | 1012.4 |
| 20260509002859 | 16 | 334 | 3.2 | 4.8 | 0.00 | 0.00 | 0.00 | 45 | 1012.5 |
| 20260509002357 | 16 | 306 | 3.2 | 4.8 | 0.00 | 0.00 | 0.00 | 47 | 1012.5 |
| 20260509001855 | 15 | 15 | 1.6 | 3.2 | 0.00 | 0.00 | 0.00 | 49 | 1012.4 |
| 20260509001350 | 16 | 97 | 0.0 | 1.6 | 0.00 | 0.00 | 0.00 | 49 | 1012.3 |
| 20260509000848 | 17 | 97 | 1.6 | 1.6 | 0.00 | 0.00 | 0.00 | 48 | 1012.2 |
| 20260509000348 | 17 | 150 | 1.6 | 1.6 | 0.00 | 0.00 | 0.00 | 47 | 1012.0 |
| 20260508235842 | 19 | 318 | 0.0 | 3.2 | 0.00 | 0.00 | 0.00 | 36 | 1011.9 |
| 20260508235339 | 19 | 326 | 1.6 | 4.8 | 0.00 | 0.00 | 0.00 | 36 | 1011.9 |
| 20260508234836 | 19 | 336 | 1.6 | 4.8 | 0.00 | 0.00 | 0.00 | 37 | 1011.8 |
| 20260508234332 | 19 | 320 | 3.2 | 3.2 | 0.00 | 0.00 | 0.00 | 37 | 1011.9 |
| 20260508233831 | 19 | 355 | 0.0 | 1.6 | 0.00 | 0.00 | 0.00 | 38 | 1012.0 |
| 20260508233330 | 19 | 356 | 1.6 | 3.2 | 0.00 | 0.00 | 0.00 | 38 | 1011.8 |
| 20260508232826 | 20 | 344 | 1.6 | 3.2 | 0.00 | 0.00 | 0.00 | 34 | 1011.9 |
| 20260508232323 | 20 | 349 | 3.2 | 4.8 | 0.00 | 0.00 | 0.00 | 32 | 1011.8 |
| 20260508231821 | 21 | 24 | 0.0 | 0.0 | 0.00 | 0.00 | 0.00 | 33 | 1011.6 |
| 20260508231317 | 21 | 309 | 1.6 | 1.6 | 0.00 | 0.00 | 0.00 | 32 | 1011.6 |
| 20260508230814 | 21 | 288 | 1.6 | 1.6 | 0.00 | 0.00 | 0.00 | 32 | 1011.6 |
| 20260508230310 | 21 | 289 | 3.2 | 6.4 | 0.00 | 0.00 | 0.00 | 33 | 1011.9 |
| 20260508225808 | 21 | 277 | 3.2 | 6.4 | 0.00 | 0.00 | 0.00 | 33 | 1011.7 |
| 20260508225306 | 21 | 337 | 4.8 | 6.4 | 0.00 | 0.00 | 0.00 | 31 | 1011.7 |
| 20260508224802 | 21 | 339 | 4.8 | 6.4 | 0.00 | 0.00 | 0.00 | 33 | 1011.7 |
| 20260508224300 | 21 | 319 | 8.0 | 12.9 | 0.00 | 0.00 | 0.00 | 31 | 1011.8 |
| 20260508223757 | 21 | 24 | 3.2 | 9.7 | 0.00 | 0.00 | 0.00 | 31 | 1011.8 |
| 20260508223255 | 21 | 308 | 8.0 | 11.3 | 0.00 | 0.00 | 0.00 | 32 | 1011.6 |
| 20260508222751 | 21 | 280 | 8.0 | 17.7 | 0.00 | 0.00 | 0.00 | 33 | 1011.8 |
| 20260508222249 | 22 | 288 | 3.2 | 6.4 | 0.00 | 0.00 | 0.00 | 31 | 1011.9 |
| 20260508221745 | 22 | 302 | 0.0 | 3.2 | 0.00 | 0.00 | 0.00 | 31 | 1011.9 |
| 20260508221241 | 21 | 278 | 4.8 | 6.4 | 0.00 | 0.00 | 0.00 | 32 | 1011.9 |
| 20260508220737 | 21 | 295 | 8.0 | 17.7 | 0.00 | 0.00 | 0.00 | 32 | 1011.9 |
| 20260508220234 | 21 | 260 | 3.2 | 12.9 | 0.00 | 0.00 | 0.00 | 33 | 1011.9 |
| 20260508215730 | 20 | 282 | 6.4 | 6.4 | 0.00 | 0.00 | 0.00 | 34 | 1011.8 |
| 20260508215227 | 20 | 300 | 3.2 | 6.4 | 0.00 | 0.00 | 0.00 | 32 | 1011.7 |
| 20260508214724 | 21 | 311 | 6.4 | 9.7 | 0.00 | 0.00 | 0.00 | 32 | 1012.1 |
| 20260508214222 | 22 | 260 | 11.3 | 22.5 | 0.00 | 0.00 | 0.00 | 32 | 1011.9 |
| 20260508213718 | 21 | 295 | 1.6 | 3.2 | 0.00 | 0.00 | 0.00 | 33 | 1011.9 |
| 20260508213214 | 22 | 260 | 4.8 | 11.3 | 0.00 | 0.00 | 0.00 | 31 | 1012.1 |
| 20260508212711 | 21 | 335 | 3.2 | 6.4 | 0.00 | 0.00 | 0.00 | 34 | 1012.1 |
| 20260508212208 | 21 | 291 | 6.4 | 6.4 | 0.00 | 0.00 | 0.00 | 33 | 1012.2 |
| 20260508211703 | 21 | 273 | 8.0 | 11.3 | 0.00 | 0.00 | 0.00 | 33 | 1011.9 |
| 20260508211159 | 21 | 310 | 11.3 | 14.5 | 0.00 | 0.00 | 0.00 | 33 | 1012.3 |
| 20260508210657 | 21 | 24 | 4.8 | 12.9 | 0.00 | 0.00 | 0.00 | 33 | 1012.3 |
| 20260508210154 | 21 | 289 | 8.0 | 16.1 | 0.00 | 0.00 | 0.00 | 32 | 1012.2 |
| 20260508205650 | 20 | 325 | 1.6 | 14.5 | 0.00 | 0.00 | 0.00 | 33 | 1012.3 |
| 20260508205147 | 20 | 177 | 0.0 | 11.3 | 0.00 | 0.00 | 0.00 | 34 | 1012.5 |
| 20260508204643 | 20 | 282 | 14.5 | 20.9 | 0.00 | 0.00 | 0.00 | 33 | 1012.6 |
| 20260508204139 | 20 | 275 | 4.8 | 14.5 | 0.00 | 0.00 | 0.00 | 34 | 1012.4 |
| 20260508203636 | 20 | 271 | 8.0 | 14.5 | 0.00 | 0.00 | 0.00 | 34 | 1012.6 |
| 20260508203132 | 20 | 309 | 3.2 | 11.3 | 0.00 | 0.00 | 0.00 | 33 | 1012.7 |
| 20260508202628 | 21 | 225 | 8.0 | 16.1 | 0.00 | 0.00 | 0.00 | 32 | 1012.7 |
| 20260508202125 | 20 | 290 | 3.2 | 14.5 | 0.00 | 0.00 | 0.00 | 35 | 1012.6 |